sat.trackr.live / text

‹ back to catalog

STARLINK-35663

NORAD 66491 · 2025-263G

PAYLOAD ACTIVE UNKNOWN

§ Identity

Operator
Country
US
Launch date
2025-11-15
Launch site
AFETR
Launch vehicle
Mass (kg)
RCS (m²)

Purposes: comms

External: N2YO · Heavens-Above · Gunter

§ Orbital elements

Epoch: 2026-05-25T02:24:05.592672Z

Period
94.27 min
Inclination
43.0043°
Eccentricity
0.0000803
Mean motion
15.27582636 rev/d
Perigee alt
482.5 km
Apogee alt
483.6 km
Semi-major
6,861.2 km
B*
-6.4050e-4
RAAN
279.2713°
Arg perigee
243.0668°
Mean anomaly
117.0102°
Rev number
3,058

§ Raw data

STARLINK-356631 66491U 25263G   26145.10006473 -.00017846  00000+0 -64050-3 0  99982 66491  43.0043 279.2713 0000803 243.0668 117.0102 15.27582636 30586

JSON: /api/v1/satellites/66491 · /tle

For live sub-satellite position, see the globe view (requires WebGL).

§ Visibility from observer

Set your observer location to see the next 7 days of passes ≥ 10°. The values pass through the URL so the page stays shareable.

No JS? Fill the form by hand. The geolocation button needs JavaScript.